﻿測定場所 (Monitoring sites),日付 (Measurement date),時間 (Measurement time),線量率 最大値 (max) μGy/h,線量率 最小値 (min) μGy/h,線量率 平均値 (average) μGy/h,
江戸川 (Edogawa),2011-12-04,23:01～24:00,0.140,0.128,0.134,
江戸川 (Edogawa),2011-12-04,22:01～23:00,0.140,0.125,0.133,
江戸川 (Edogawa),2011-12-04,21:01～22:00,0.141,0.126,0.134,
江戸川 (Edogawa),2011-12-04,20:01～21:00,0.138,0.126,0.134,
江戸川 (Edogawa),2011-12-04,19:01～20:00,0.142,0.127,0.134,
江戸川 (Edogawa),2011-12-04,18:01～19:00,0.142,0.124,0.133,
江戸川 (Edogawa),2011-12-04,17:01～18:00,0.142,0.127,0.133,
江戸川 (Edogawa),2011-12-04,16:01～17:00,0.139,0.125,0.132,
江戸川 (Edogawa),2011-12-04,15:01～16:00,0.140,0.127,0.134,
江戸川 (Edogawa),2011-12-04,14:01～15:00,0.140,0.126,0.133,
江戸川 (Edogawa),2011-12-04,13:01～14:00,0.140,0.126,0.133,
江戸川 (Edogawa),2011-12-04,12:01～13:00,0.139,0.123,0.133,
江戸川 (Edogawa),2011-12-04,11:01～12:00,0.139,0.127,0.132,
江戸川 (Edogawa),2011-12-04,10:01～11:00,0.141,0.125,0.134,
江戸川 (Edogawa),2011-12-04,09:01～10:00,0.140,0.126,0.134,
江戸川 (Edogawa),2011-12-04,08:01～09:00,0.141,0.128,0.133,
江戸川 (Edogawa),2011-12-04,07:01～08:00,0.139,0.125,0.133,
江戸川 (Edogawa),2011-12-04,06:01～07:00,0.140,0.127,0.133,
江戸川 (Edogawa),2011-12-04,05:01～06:00,0.142,0.126,0.134,
江戸川 (Edogawa),2011-12-04,04:01～05:00,0.141,0.125,0.133,
江戸川 (Edogawa),2011-12-04,03:01～04:00,0.141,0.127,0.133,
江戸川 (Edogawa),2011-12-04,02:01～03:00,0.141,0.126,0.133,
江戸川 (Edogawa),2011-12-04,01:01～02:00,0.141,0.123,0.134,
江戸川 (Edogawa),2011-12-04,00:01～01:00,0.138,0.126,0.133,
江戸川 (Edogawa),2011-12-03,23:01～24:00,0.138,0.126,0.132,
江戸川 (Edogawa),2011-12-03,22:01～23:00,0.141,0.127,0.133,
江戸川 (Edogawa),2011-12-03,21:01～22:00,0.141,0.123,0.133,
江戸川 (Edogawa),2011-12-03,20:01～21:00,0.143,0.126,0.134,
江戸川 (Edogawa),2011-12-03,19:01～20:00,0.139,0.126,0.132,
江戸川 (Edogawa),2011-12-03,18:01～19:00,0.138,0.128,0.132,
江戸川 (Edogawa),2011-12-03,17:01～18:00,0.139,0.126,0.132,
江戸川 (Edogawa),2011-12-03,16:01～17:00,0.137,0.127,0.132,
江戸川 (Edogawa),2011-12-03,15:01～16:00,0.139,0.127,0.132,
江戸川 (Edogawa),2011-12-03,14:01～15:00,0.141,0.125,0.133,
江戸川 (Edogawa),2011-12-03,13:01～14:00,0.141,0.127,0.133,
江戸川 (Edogawa),2011-12-03,12:01～13:00,0.150,0.130,0.137,
江戸川 (Edogawa),2011-12-03,11:01～12:00,0.145,0.131,0.139,
江戸川 (Edogawa),2011-12-03,10:01～11:00,0.148,0.134,0.141,
江戸川 (Edogawa),2011-12-03,09:01～10:00,0.150,0.133,0.140,
江戸川 (Edogawa),2011-12-03,08:01～09:00,0.144,0.130,0.138,
江戸川 (Edogawa),2011-12-03,07:01～08:00,0.145,0.133,0.138,
江戸川 (Edogawa),2011-12-03,06:01～07:00,0.146,0.134,0.140,
江戸川 (Edogawa),2011-12-03,05:01～06:00,0.146,0.133,0.138,
江戸川 (Edogawa),2011-12-03,04:01～05:00,0.143,0.131,0.138,
江戸川 (Edogawa),2011-12-03,03:01～04:00,0.146,0.130,0.137,
江戸川 (Edogawa),2011-12-03,02:01～03:00,0.143,0.128,0.136,
江戸川 (Edogawa),2011-12-03,01:01～02:00,0.144,0.125,0.134,
江戸川 (Edogawa),2011-12-03,00:01～01:00,0.141,0.128,0.134,
江戸川 (Edogawa),2011-12-02,23:01～24:00,0.140,0.124,0.134,
江戸川 (Edogawa),2011-12-02,22:01～23:00,0.141,0.125,0.134,
江戸川 (Edogawa),2011-12-02,21:01～22:00,0.143,0.126,0.133,
江戸川 (Edogawa),2011-12-02,20:01～21:00,0.139,0.127,0.133,
江戸川 (Edogawa),2011-12-02,19:01～20:00,0.141,0.126,0.133,
江戸川 (Edogawa),2011-12-02,18:01～19:00,0.144,0.127,0.134,
江戸川 (Edogawa),2011-12-02,17:01～18:00,0.140,0.127,0.134,
江戸川 (Edogawa),2011-12-02,16:01～17:00,0.143,0.124,0.133,
江戸川 (Edogawa),2011-12-02,15:01～16:00,0.141,0.125,0.132,
江戸川 (Edogawa),2011-12-02,14:01～15:00,0.141,0.124,0.133,
江戸川 (Edogawa),2011-12-02,13:01～14:00,0.138,0.125,0.133,
江戸川 (Edogawa),2011-12-02,12:01～13:00,0.139,0.127,0.133,
江戸川 (Edogawa),2011-12-02,11:01～12:00,0.143,0.126,0.133,
江戸川 (Edogawa),2011-12-02,10:01～11:00,0.139,0.126,0.133,
江戸川 (Edogawa),2011-12-02,09:01～10:00,0.141,0.127,0.133,
江戸川 (Edogawa),2011-12-02,08:01～09:00,0.141,0.131,0.136,
江戸川 (Edogawa),2011-12-02,07:01～08:00,0.146,0.127,0.136,
江戸川 (Edogawa),2011-12-02,06:01～07:00,0.147,0.131,0.137,
江戸川 (Edogawa),2011-12-02,05:01～06:00,0.145,0.130,0.138,
江戸川 (Edogawa),2011-12-02,04:01～05:00,0.145,0.129,0.137,
江戸川 (Edogawa),2011-12-02,03:01～04:00,0.147,0.132,0.139,
江戸川 (Edogawa),2011-12-02,02:01～03:00,0.145,0.133,0.139,
江戸川 (Edogawa),2011-12-02,01:01～02:00,0.146,0.130,0.139,
江戸川 (Edogawa),2011-12-02,00:01～01:00,0.146,0.133,0.140,
江戸川 (Edogawa),2011-12-01,23:01～24:00,0.149,0.130,0.138,
江戸川 (Edogawa),2011-12-01,22:01～23:00,0.149,0.136,0.142,
江戸川 (Edogawa),2011-12-01,21:01～22:00,0.150,0.134,0.142,
江戸川 (Edogawa),2011-12-01,20:01～21:00,0.144,0.129,0.137,
江戸川 (Edogawa),2011-12-01,19:01～20:00,0.141,0.126,0.134,
江戸川 (Edogawa),2011-12-01,18:01～19:00,0.142,0.128,0.133,
江戸川 (Edogawa),2011-12-01,17:01～18:00,0.140,0.129,0.134,
江戸川 (Edogawa),2011-12-01,16:01～17:00,0.141,0.128,0.134,
江戸川 (Edogawa),2011-12-01,15:01～16:00,0.140,0.128,0.134,
江戸川 (Edogawa),2011-12-01,14:01～15:00,0.140,0.128,0.135,
江戸川 (Edogawa),2011-12-01,13:01～14:00,0.141,0.130,0.135,
江戸川 (Edogawa),2011-12-01,12:01～13:00,0.142,0.129,0.135,
江戸川 (Edogawa),2011-12-01,11:01～12:00,0.144,0.129,0.136,
